Wind_Speed
78 79 77 76 77 79 82 84 82 78 72 69 69 69 70 70 70 66 62 56 48 42 38 34 28 23 19 17 16 14 14 20 29 39 50 58 63 65 64 61 59 63 74
78 80 78 77 76 78 81 83 81 76 72 68 68 68 69 69 69 65 60 55 49 43 39 34 29 23 18 17 16 15 15 18 25 34 44 53 59 62 62 60 56 57 66
78 80 79 77 76 78 81 82 80 75 71 67 67 67 67 68 68 64 59 55 49 44 40 35 30 24 18 16 15 15 15 16 22 30 39 47 54 59 60 59 56 53 59
77 79 79 78 76 77 80 81 79 75 70 66 65 65 65 66 67 63 57 54 50 45 41 36 31 25 19 15 13 13 13 15 18 26 34 42 49 54 56 57 55 52 54
76 78 79 78 77 76 78 80 78 74 69 65 64 64 64 64 65 63 57 54 50 46 42 38 34 28 22 17 13 11 11 13 16 21 29 37 43 49 52 54 52 50 52
74 77 79 78 77 76 77 78 78 74 68 64 63 62 62 62 63 63 58 53 49 46 43 39 35 31 25 20 15 11 9 10 14 17 23 31 38 44 48 50 50 49 50
73 76 78 78 76 75 75 77 77 74 69 63 61 60 60 60 61 61 58 51 47 44 41 39 37 33 28 22 17 13 8 7 10 14 19 26 33 39 42 45 46 46 48
72 74 76 77 76 74 74 75 76 74 69 63 60 58 58 58 58 59 57 51 46 42 40 38 37 34 30 25 20 15 10 5 6 11 16 22 28 34 38 41 43 44 47
70 72 74 75 75 74 73 74 75 73 69 64 59 57 57 57 56 56 56 52 45 41 38 37 35 34 32 27 23 17 12 7 4 8 14 20 25 29 33 37 40 42 47
69 70 72 74 74 73 72 72 73 73 70 64 59 57 56 55 55 55 54 52 46 40 37 35 34 33 32 29 25 21 15 9 3 5 11 17 23 27 30 34 38 42 47
68 69 70 72 73 72 71 70 71 72 69 64 59 56 55 54 53 53 52 50 47 40 36 33 32 32 31 30 27 24 18 12 6 1 7 14 20 25 29 33 37 42 47
67 68 68 70 71 71 69 69 69 70 69 64 58 55 53 53 52 51 51 49 47 42 35 31 30 29 29 29 28 26 22 16 10 2 5 11 17 23 28 33 38 42 47
66 66 66 67 69 69 68 67 67 68 67 64 58 54 51 51 50 50 49 48 46 44 37 31 29 28 27 28 27 27 24 20 14 7 3 8 15 21 27 33 38 43 47
64 65 65 65 67 67 66 65 64 66 66 64 59 53 50 49 49 48 47 46 45 43 40 34 29 27 26 26 26 26 25 21 16 11 6 7 13 20 27 34 40 43 47
63 64 63 62 64 65 64 63 62 63 65 64 60 53 49 47 47 47 46 45 43 42 40 38 32 27 25 24 24 24 24 22 18 13 10 9 13 20 27 34 40 44 47
62 62 61 60 61 62 62 61 60 61 63 64 60 54 49 46 46 46 45 43 42 41 40 39 35 28 24 22 21 21 21 20 18 15 12 11 14 20 27 34 40 45 48
60 60 59 58 58 60 60 59 58 59 60 62 60 54 48 45 44 44 44 42 41 40 39 38 36 32 26 21 19 18 18 18 16 14 13 12 15 20 26 33 39 43 48
59 59 57 55 55 57 58 57 56 56 58 59 59 54 47 43 42 42 42 41 40 39 38 37 35 33 28 22 18 16 16 15 15 14 13 13 16 20 25 31 37 41 45
58 57 55 53 52 53 55 55 54 54 55 57 57 54 48 42 40 40 40 40 38 37 36 36 35 34 30 24 19 14 12 12 12 12 12 13 16 20 24 29 34 38 42
57 55 52 50 49 50 52 52 51 51 52 54 55 53 48 42 39 38 38 39 37 36 35 34 34 34 31 27 20 14 10 8 8 9 10 12 15 19 23 27 31 35 39
57 53 49 46 45 47 49 49 48 48 49 51 52 52 47 42 38 36 36 37 37 35 34 33 33 33 32 29 23 16 10 5 4 6 9 11 14 18 22 26 29 33 36
55 51 47 43 42 44 46 46 46 45 46 47 49 50 46 41 37 35 34 34 35 35 33 32 31 31 31 29 26 20 13 5 1 5 8 11 14 18 22 25 28 31 34
54 50 45 41 40 41 43 43 43 42 43 44 47 48 45 41 36 33 32 32 33 33 33 31 30 29 30 29 28 23 17 9 1 5 9 12 15 19 22 25 28 30 33
52 49 44 40 38 39 40 41 40 40 40 41 44 45 44 40 35 32 30 30 31 32 32 31 30 28 28 29 28 26 21 16 7 3 10 14 17 20 23 25 28 30 32
50 47 42 38 36 37 38 38 38 37 37 38 41 43 43 39 35 31 29 28 29 30 30 30 29 28 27 27 27 27 24 20 14 6 5 14 19 21 23 26 28 30 33
48 45 41 37 34 34 35 36 35 35 35 36 38 40 41 39 34 30 27 27 27 28 29 29 28 27 26 26 26 26 25 22 18 13 4 7 17 23 25 27 28 30 32
Wind_Direction
350 350 349 347 346 345 346 349 350 351 351 351 351 352 352 354 355 355 354 353 351 348 343 336 325 311 297 287 280 270 253 233 221 217 216 215 214 214 214 215 217 218 217
350 350 349 348 346 346 347 350 352 352 352 353 353 354 354 356 357 357 357 357 356 354 351 346 338 325 306 290 278 268 256 240 225 219 217 215 214 214 214 215 217 218 216
349 350 350 348 347 347 348 351 353 353 353 354 354 355 356 357 359 359 360 0 360 359 358 355 348 339 323 303 285 270 258 243 227 219 218 216 215 214 213 214 217 218 216
349 350 350 349 347 347 348 351 354 355 354 355 356 357 358 359 1 1 2 3 4 4 3 1 357 351 341 324 301 279 261 245 229 220 217 217 215 214 213 214 216 218 216
348 349 349 349 348 348 349 352 354 356 356 355 356 358 359 0 1 2 4 6 6 6 6 6 4 1 355 344 326 297 271 248 231 221 217 215 215 214 213 214 216 218 216
347 348 349 349 348 348 349 352 355 357 357 356 357 358 360 1 2 3 5 6 7 8 8 8 8 7 3 357 345 326 293 258 235 222 215 213 213 212 213 214 215 217 215
346 347 348 349 348 348 349 351 355 357 358 357 357 359 0 2 2 4 6 6 7 8 9 10 10 10 8 4 359 349 327 278 239 222 214 210 209 210 211 213 215 215 212
345 346 347 348 348 348 349 351 354 357 358 358 358 359 0 2 3 5 6 6 6 8 9 11 11 11 11 10 6 1 349 315 248 223 212 206 205 207 209 212 213 212 208
343 345 346 347 347 347 349 351 354 357 359 359 359 360 1 2 4 5 6 7 6 8 10 12 13 13 13 14 12 9 4 348 273 221 207 201 200 202 204 208 209 207 203
342 344 345 346 347 347 348 350 353 356 359 359 359 0 2 3 3 5 6 7 7 7 8 10 12 14 15 16 16 14 11 4 338 225 206 199 196 196 198 201 201 199 197
340 342 344 345 346 346 347 349 352 356 359 360 360 1 2 3 3 4 6 8 8 8 8 9 11 13 15 16 17 18 16 14 8 241 201 195 194 193 193 193 192 191 190
338 340 342 344 345 345 346 348 351 355 358 360 360 1 2 3 3 4 6 8 9 10 9 10 11 13 14 16 17 19 21 21 22 32 191 192 191 190 188 186 185 184 184
335 338 340 342 344 344 345 347 350 354 357 359 0 1 2 3 4 4 5 7 9 11 12 12 13 14 15 16 18 20 23 25 28 40 123 178 184 184 182 180 178 177 179
332 335 338 340 342 343 344 346 349 352 356 359 0 1 2 4 5 5 6 7 10 12 13 14 14 14 15 16 18 20 23 27 34 45 79 145 168 174 174 173 172 171 174
329 332 335 338 341 341 342 344 347 350 354 358 360 1 2 3 4 6 6 8 10 12 14 16 16 15 15 17 19 21 23 28 38 51 76 117 151 164 169 170 169 169 171
325 328 331 335 338 340 341 342 345 348 352 357 360 0 1 3 5 6 7 8 10 12 14 16 17 17 17 19 21 24 27 32 42 56 77 110 139 157 164 167 168 169 169
321 324 328 331 335 337 339 340 342 346 350 355 359 0 1 2 4 6 7 8 9 12 14 15 16 17 18 19 22 27 32 38 48 62 81 109 134 151 161 165 168 169 170
316 320 323 328 332 335 337 338 340 344 349 353 357 0 1 2 4 6 7 8 9 11 13 14 15 16 18 19 22 27 34 42 53 68 86 110 133 148 158 164 167 168 170
310 315 319 323 329 332 334 336 338 342 346 351 356 359 0 1 3 5 7 8 9 10 12 14 15 16 17 19 21 25 33 45 58 74 91 113 134 148 156 163 167 169 171
304 309 314 319 325 329 332 334 336 340 344 350 354 358 360 1 2 4 6 7 8 9 11 13 15 16 17 18 20 23 30 45 65 85 103 121 138 150 158 162 167 169 172
299 304 309 314 321 326 329 331 334 337 342 347 352 357 359 0 1 3 5 6 8 9 10 12 14 16 17 19 20 21 23 38 79 109 123 137 148 156 162 166 168 171 173
295 300 304 309 316 322 325 328 331 335 340 345 350 355 358 360 1 2 3 5 7 8 9 10 12 15 17 18 20 22 22 22 121 159 158 159 162 165 169 172 173 174 175
293 295 298 304 312 318 322 325 328 333 338 343 348 353 357 359 0 1 2 4 6 7 8 9 11 13 15 17 19 21 23 25 15 197 189 182 178 177 178 179 180 180 180
290 291 293 299 307 314 318 322 325 330 335 341 346 351 356 358 359 -0 1 3 5 6 7 8 9 10 13 15 17 19 21 22 25 216 205 199 193 190 188 187 188 188 187
287 288 290 294 302 309 315 319 322 327 332 338 344 349 354 357 359 359 360 2 4 5 6 7 8 8 10 12 15 16 18 20 20 15 219 208 204 200 196 194 193 193 192
284 284 286 290 297 304 311 315 319 324 330 335 341 347 352 356 358 359 359 0 2 4 5 5 6 7 8 10 12 14 15 16 16 16 1 218 210 207 204 201 198 197 197
Height
5656 5640 5624 5608 5592 5575 5557 5538 5518 5498 5480 5463 5446 5430 5413 5395 5376 5358 5342 5327 5314 5303 5294 5286 5280 5275 5272 5271 5270 5269 5268 5269 5272 5278 5286 5296 5309 5323 5337 5351 5362 5374 5388
5650 5634 5618 5602 5586 5569 5552 5533 5513 5494 5476 5459 5443 5427 5410 5393 5375 5358 5342 5327 5314 5303 5293 5284 5276 5271 5268 5266 5266 5265 5265 5266 5269 5274 5280 5290 5302 5315 5329 5342 5354 5364 5377
5644 5629 5613 5597 5581 5564 5547 5528 5509 5490 5473 5456 5441 5425 5409 5392 5375 5358 5343 5329 5315 5303 5293 5283 5276 5270 5265 5263 5262 5262 5262 5263 5266 5270 5276 5284 5295 5308 5322 5334 5346 5356 5368
5639 5624 5608 5592 5576 5559 5542 5524 5506 5487 5470 5454 5439 5423 5407 5391 5375 5359 5345 5331 5317 5305 5295 5285 5277 5270 5265 5262 5260 5259 5260 5261 5263 5266 5272 5279 5289 5301 5314 5327 5338 5349 5359
5635 5619 5604 5588 5572 5555 5538 5521 5503 5485 5468 5452 5437 5422 5406 5391 5376 5361 5346 5332 5320 5309 5298 5288 5279 5272 5266 5262 5259 5258 5258 5259 5260 5263 5268 5275 5284 5295 5307 5319 5331 5341 5351
5630 5615 5600 5584 5568 5552 5535 5518 5501 5483 5467 5451 5436 5421 5406 5391 5377 5361 5346 5334 5323 5312 5301 5292 5283 5275 5269 5264 5260 5257 5257 5257 5259 5261 5266 5272 5280 5290 5301 5312 5323 5333 5344
5626 5611 5596 5580 5565 5549 5533 5517 5500 5483 5466 5451 5436 5421 5407 5393 5379 5364 5350 5337 5327 5316 5306 5296 5288 5280 5273 5267 5262 5259 5257 5256 5257 5260 5263 5269 5276 5285 5295 5306 5316 5326 5337
5622 5607 5592 5577 5562 5546 5531 5515 5498 5482 5466 5451 5437 5422 5408 5394 5381 5367 5354 5341 5331 5321 5311 5302 5293 5285 5277 5271 5266 5261 5258 5257 5257 5258 5261 5266 5272 5280 5290 5300 5310 5320 5330
5617 5603 5589 5574 5559 5544 5529 5513 5497 5481 5466 5451 5437 5423 5409 5395 5382 5370 5357 5345 5334 5324 5315 5306 5298 5290 5282 5275 5269 5265 5261 5259 5258 5258 5260 5264 5269 5276 5284 5294 5304 5314 5324
5613 5599 5586 5571 5556 5542 5527 5512 5496 5480 5465 5450 5437 5423 5409 5397 5384 5373 5361 5349 5338 5327 5318 5310 5302 5294 5287 5280 5274 5268 5264 5261 5259 5259 5260 5263 5267 5273 5281 5289 5299 5309 5319
5608 5595 5582 5568 5554 5539 5525 5511 5496 5480 5465 5450 5437 5423 5410 5398 5387 5375 5364 5353 5342 5331 5322 5314 5306 5298 5291 5285 5278 5272 5268 5264 5261 5260 5261 5263 5267 5272 5278 5286 5296 5306 5317
5604 5592 5579 5565 5552 5537 5523 5509 5495 5480 5465 5451 5437 5424 5412 5400 5389 5378 5367 5356 5345 5335 5325 5318 5310 5303 5296 5289 5283 5277 5272 5267 5264 5262 5262 5264 5267 5272 5278 5285 5295 5305 5317
5599 5587 5575 5562 5549 5535 5521 5508 5494 5480 5466 5452 5439 5427 5415 5403 5391 5381 5370 5360 5349 5339 5329 5321 5314 5307 5301 5294 5288 5282 5276 5272 5268 5266 5265 5266 5269 5273 5279 5286 5296 5307 5318
5593 5582 5571 5559 5547 5533 5520 5507 5494 5481 5467 5453 5440 5428 5417 5406 5395 5384 5374 5363 5353 5343 5334 5325 5317 5311 5305 5299 5293 5288 5282 5277 5273 5270 5269 5269 5272 5276 5282 5290 5299 5309 5320
5588 5578 5567 5555 5544 5532 5519 5506 5494 5481 5468 5455 5442 5430 5419 5408 5398 5387 5377 5367 5357 5348 5338 5329 5322 5316 5310 5305 5299 5294 5288 5284 5280 5277 5275 5275 5277 5281 5287 5294 5303 5312 5323
5581 5572 5562 5551 5540 5529 5517 5505 5493 5481 5468 5455 5442 5430 5419 5409 5399 5389 5379 5369 5360 5352 5343 5335 5327 5320 5315 5309 5305 5300 5295 5291 5287 5284 5283 5282 5284 5288 5293 5300 5308 5317 5327
5574 5566 5557 5547 5537 5526 5515 5503 5492 5480 5468 5455 5443 5431 5420 5410 5400 5391 5382 5373 5364 5356 5347 5339 5332 5325 5319 5314 5310 5306 5302 5298 5295 5292 5291 5291 5292 5295 5300 5306 5314 5322 5332
5566 5559 5551 5542 5532 5522 5512 5500 5489 5478 5467 5455 5443 5432 5421 5411 5402 5393 5384 5376 5368 5359 5352 5344 5337 5330 5324 5318 5314 5311 5308 5305 5302 5300 5299 5299 5301 5303 5308 5313 5320 5328 5337
5557 5551 5544 5536 5527 5518 5508 5498 5487 5477 5466 5455 5443 5432 5422 5413 5404 5395 5387 5379 5371 5363 5356 5349 5341 5334 5328 5323 5318 5315 5313 5311 5309 5308 5307 5307 5309 5312 5316 5320 5327 5334 5342
5548 5543 5536 5529 5522 5513 5504 5495 5485 5475 5465 5454 5443 5433 5423 5413 5405 5397 5389 5381 5374 5367 5360 5353 5346 5339 5332 5327 5322 5319 5317 5315 5315 5314 5314 5314 5316 5319 5322 5327 5333 5339 5346
5538 5533 5528 5522 5515 5508 5500 5491 5482 5472 5463 5453 5443 5433 5423 5414 5406 5398 5391 5384 5377 5370 5363 5356 5350 5343 5337 5331 5326 5322 5320 5319 5318 5318 5319 5320 5322 5325 5328 5333 5338 5344 5350
5527 5524 5519 5514 5508 5502 5495 5487 5478 5469 5461 5452 5443 5433 5424 5415 5407 5399 5392 5386 5379 5372 5366 5360 5353 5347 5341 5335 5330 5325 5322 5320 5320 5321 5322 5324 5326 5329 5333 5337 5342 5347 5353
5516 5514 5510 5506 5501 5495 5489 5482 5474 5466 5458 5450 5441 5433 5423 5415 5407 5400 5393 5387 5381 5374 5368 5362 5356 5350 5345 5339 5333 5328 5325 5322 5321 5322 5324 5326 5328 5331 5335 5339 5344 5349 5355
5505 5503 5501 5497 5493 5489 5483 5477 5470 5462 5455 5447 5439 5431 5423 5414 5407 5400 5394 5388 5382 5376 5370 5364 5358 5353 5347 5342 5337 5331 5327 5324 5322 5321 5323 5325 5328 5332 5335 5340 5345 5350 5355
5493 5493 5491 5488 5485 5481 5476 5471 5465 5458 5451 5444 5437 5430 5422 5414 5406 5400 5394 5388 5382 5377 5371 5366 5360 5355 5350 5344 5339 5334 5330 5326 5323 5321 5321 5323 5326 5330 5334 5338 5343 5348 5354
5482 5482 5481 5479 5477 5474 5470 5465 5459 5453 5447 5441 5434 5427 5420 5413 5405 5399 5393 5388 5383 5377 5372 5367 5362 5356 5351 5346 5341 5337 5332 5327 5324 5321 5320 5320 5322 5326 5330 5335 5340 5345 5351